Location: Bailen
(14.1842°N, 120.7958°E)
Time: 17:48:34
(UTC+00:00)

SKYMED 2 - Visible Passes

Search period start: 11 April 2026 00:00
Search period end: 21 April 2026 00:00
Orbit: 622 x 624 km, 97.9° (Epoch: 11 April)

Date Brightness Start Highest point End Pass type
(mag) Time Alt. Az. Time Alt. Az. Time Alt. Az.
11 Apr 6.4 20:47:44 10° SE 20:51:05 22° ENE 20:54:26 10° NNE visible
12 Apr 5.3 21:05:01 10° SE 21:09:02 38° ENE 21:13:03 10° N visible
13 Apr 7.0 10:43:56 10° NW 10:46:22 15° WNW 10:48:49 10° WSW visible
15 Apr 7.4 20:26:29 10° E 20:27:14 10° ENE 20:27:58 10° ENE visible
16 Apr 6.7 20:42:08 10° ESE 20:45:08 19° ENE 20:48:08 10° NNE visible
17 Apr 5.7 20:59:13 10° SE 21:03:04 32° ENE 21:06:54 10° NNE visible
18 Apr 6.9 10:37:29 10° NNW 10:40:24 18° WNW 10:43:20 10° WSW visible
18 Apr 4.4 21:16:46 10° SSE 21:21:01 58° ENE 21:25:15 10° N visible
